Вернуться в каталог

HERMES-6

АктивенНаукаSSO
NORAD 63489·PAYLOAD·🇮🇹 Italy

Запущен Mar 15, 2025 с Vandenberg Space Force Base

Loading…

Ближайшие Пролёты (ближайшие 24 часа)

TLE

СвежийSource: Space-Track

Эпоха: Sep 13, 2026, 16:13 UTC

1 63489U 25052BK  26256.67574985  .00004045  00000-0  17027-3 0  9999
2 63489  97.3862 147.8806 0005104 204.2415 155.8583 15.23927057 83309

Отслеживайте HERMES-6 в реальном времени с AllMySat

Download on the App Store